Temperature
-6 -5 -5 -5 -5 -5 -6 -6 -5 -4 -5 -4 -5 -5 -5 -4 -4 -4 -4 -3 -3 -3 -2 -2 -1 -0 0 0 1 1 1 1 2 2 2 2 3 3 3 4 4 4 4 4
-6 -5 -6 -5 -5 -5 -5 -5 -6 -5 -5 -5 -5 -5 -5 -4 -4 -5 -4 -4 -3 -3 -3 -2 -2 -1 -0 0 0 0 1 1 1 1 2 2 2 2 3 3 3 3 3 3
-6 -6 -5 -5 -5 -5 -6 -6 -6 -5 -5 -6 -6 -6 -5 -5 -5 -5 -5 -4 -4 -4 -3 -3 -2 -2 -1 -0 -0 -0 0 0 1 1 1 1 2 2 2 2 2 3 3 3
-7 -6 -5 -4 -6 -6 -6 -6 -7 -6 -6 -6 -6 -6 -5 -5 -5 -5 -5 -5 -4 -4 -4 -3 -3 -2 -2 -1 -1 -1 -1 0 0 0 1 1 1 1 1 1 2 2 2 2
-7 -7 -6 -5 -6 -7 -7 -6 -7 -7 -7 -6 -6 -6 -5 -5 -5 -5 -5 -5 -5 -4 -4 -3 -3 -3 -2 -2 -1 -1 -1 -0 -0 0 0 0 1 0 1 1 1 1 1 1
-8 -6 -5 -4 -6 -7 -7 -6 -6 -7 -7 -7 -7 -7 -6 -5 -5 -5 -5 -5 -5 -5 -4 -4 -3 -3 -3 -2 -2 -2 -1 -1 -1 -0 -0 0 0 0 0 0 0 0 1 1
-8 -8 -7 -7 -7 -7 -5 -5 -6 -6 -7 -7 -8 -7 -5 -5 -5 -5 -5 -5 -5 -5 -4 -4 -4 -4 -3 -3 -2 -2 -2 -1 -1 -1 -1 -0 -0 -0 -0 -0 -0 -0 -0 -0
-9 -8 -6 -7 -8 -7 -6 -5 -6 -6 -6 -6 -6 -6 -6 -6 -6 -6 -6 -5 -5 -5 -5 -4 -4 -4 -4 -3 -3 -2 -2 -2 -1 -1 -1 -1 -1 -1 -1 -1 -1 -1 -1 -1
-8 -6 -6 -7 -6 -5 -6 -6 -6 -6 -6 -6 -7 -6 -6 -6 -6 -6 -6 -6 -6 -6 -5 -5 -5 -4 -4 -4 -3 -3 -2 -2 -2 -1 -1 -1 -1 -1 -1 -1 -1 -1 -1 -1
-10 -9 -8 -7 -6 -6 -6 -6 -6 -6 -6 -6 -7 -7 -7 -6 -6 -6 -6 -6 -6 -6 -6 -5 -5 -4 -4 -4 -4 -3 -3 -2 -2 -2 -2 -2 -2 -2 -2 -2 -2 -2 -2 -2
-10 -9 -8 -6 -5 -5 -5 -6 -6 -6 -6 -6 -7 -7 -7 -7 -7 -7 -7 -7 -6 -6 -6 -6 -5 -5 -5 -4 -4 -3 -3 -3 -3 -2 -2 -2 -2 -2 -2 -2 -2 -2 -2 -2
-8 -7 -8 -6 -5 -6 -6 -6 -6 -6 -7 -7 -7 -7 -7 -7 -7 -7 -7 -7 -7 -6 -6 -6 -6 -5 -5 -5 -4 -4 -4 -3 -3 -3 -3 -3 -2 -2 -2 -2 -2 -2 -2 -2
-6 -6 -6 -6 -6 -6 -6 -7 -7 -7 -7 -7 -7 -7 -7 -7 -7 -7 -7 -7 -7 -7 -7 -6 -6 -5 -5 -5 -5 -5 -4 -4 -4 -4 -3 -3 -3 -3 -3 -3 -3 -3 -3 -3
-6 -7 -7 -7 -7 -7 -7 -7 -7 -7 -7 -8 -7 -8 -8 -8 -8 -8 -8 -7 -7 -7 -7 -7 -6 -6 -6 -6 -5 -5 -5 -5 -4 -4 -4 -4 -4 -4 -4 -3 -3 -3 -3 -3
-7 -7 -7 -7 -7 -7 -7 -8 -8 -8 -8 -8 -8 -8 -8 -8 -8 -8 -8 -8 -8 -7 -7 -7 -7 -7 -6 -6 -6 -6 -6 -5 -5 -5 -5 -5 -5 -4 -4 -4 -4 -4 -4 -4
-7 -8 -8 -8 -8 -8 -8 -8 -8 -8 -8 -8 -8 -8 -8 -8 -8 -8 -8 -8 -8 -8 -7 -7 -7 -7 -7 -7 -6 -6 -6 -6 -6 -6 -5 -5 -5 -5 -5 -5 -5 -5 -5 -5
-8 -8 -8 -8 -8 -8 -8 -9 -9 -9 -9 -9 -9 -9 -9 -9 -8 -8 -8 -8 -8 -8 -8 -8 -7 -7 -7 -7 -7 -7 -7 -6 -6 -6 -6 -6 -6 -6 -6 -6 -5 -5 -5 -5
-8 -8 -8 -8 -8 -9 -9 -9 -9 -9 -9 -9 -9 -9 -9 -9 -9 -8 -8 -8 -8 -8 -8 -8 -8 -8 -8 -7 -7 -7 -7 -7 -7 -7 -7 -7 -7 -7 -6 -6 -6 -6 -6 -6
-8 -8 -8 -8 -8 -9 -9 -9 -9 -9 -9 -9 -9 -9 -9 -9 -9 -9 -9 -9 -8 -8 -8 -8 -8 -8 -8 -8 -8 -8 -8 -8 -7 -7 -7 -7 -7 -7 -7 -7 -7 -7 -7 -7
-8 -8 -8 -8 -8 -9 -9 -9 -9 -9 -9 -9 -9 -9 -9 -9 -9 -9 -9 -9 -9 -9 -9 -9 -9 -8 -8 -8 -8 -8 -8 -8 -8 -8 -8 -8 -8 -8 -8 -8 -8 -7 -7 -7
-8 -8 -8 -8 -8 -9 -9 -9 -9 -9 -9 -10 -10 -10 -10 -10 -9 -10 -9 -9 -9 -9 -9 -9 -9 -9 -9 -9 -9 -9 -9 -8 -8 -8 -8 -8 -8 -8 -8 -8 -8 -8 -8 -8
-8 -8 -8 -9 -9 -9 -9 -9 -9 -9 -10 -10 -10 -10 -10 -10 -10 -10 -10 -10 -10 -10 -10 -9 -9 -9 -9 -9 -9 -9 -9 -9 -9 -9 -9 -9 -9 -9 -9 -9 -9 -8 -8 -8
-9 -9 -9 -9 -9 -9 -9 -9 -10 -10 -10 -10 -10 -10 -10 -10 -10 -10 -10 -10 -10 -10 -10 -10 -10 -10 -10 -10 -10 -10 -10 -9 -9 -9 -9 -9 -9 -9 -9 -9 -9 -9 -9 -9
-9 -9 -9 -9 -9 -10 -10 -10 -10 -10 -10 -10 -10 -10 -10 -10 -10 -10 -10 -10 -10 -10 -10 -10 -10 -10 -10 -10 -10 -10 -10 -10 -10 -10 -10 -10 -10 -9 -9 -9 -9 -9 -9 -9
-9 -9 -9 -10 -10 -10 -10 -10 -10 -10 -10 -10 -10 -10 -10 -10 -10 -10 -10 -10 -10 -10 -10 -10 -10 -10 -10 -10 -10 -10 -10 -10 -10 -10 -10 -10 -10 -10 -10 -10 -10 -10 -10 -10
-10 -10 -10 -10 -10 -10 -10 -10 -10 -10 -10 -10 -10 -10 -11 -11 -11 -11 -11 -11 -11 -11 -11 -11 -11 -11 -11 -11 -11 -11 -11 -10 -10 -10 -10 -10 -10 -10 -10 -10 -10 -10 -10 -10
-10 -10 -10 -10 -10 -10 -11 -11 -11 -11 -11 -11 -11 -11 -11 -11 -11 -11 -11 -11 -11 -11 -11 -11 -11 -11 -11 -11 -11 -11 -11 -11 -11 -11 -11 -11 -11 -11 -11 -11 -11 -11 -11 -10
Wind_Speed
6 7 5 6 6 5 6 7 8 8 9 12 9 9 8 7 7 7 7 7 7 6 6 7 7 7 7 6 5 4 3 3 4 3 3 3 3 4 4 4 5 5 4 4
4 4 5 7 8 8 9 7 9 10 12 9 7 6 7 7 7 7 8 8 7 7 7 7 7 7 7 7 6 5 4 4 4 3 2 2 3 3 3 3 3 3 4 4
4 5 5 7 7 8 5 6 6 9 9 6 7 8 7 7 7 7 8 8 8 7 7 7 7 7 7 7 6 5 4 4 3 2 2 2 2 2 2 2 2 3 3 4
2 4 5 6 2 4 6 7 8 7 7 7 8 8 7 6 5 7 7 8 8 7 7 7 7 7 7 6 5 5 5 4 4 2 2 1 1 1 1 2 2 2 2 2
1 3 8 7 2 2 3 6 5 7 8 8 7 6 5 4 5 6 6 7 7 7 7 7 7 6 6 6 5 5 4 4 4 3 2 1 2 2 1 2 1 1 1 2
3 3 6 5 1 1 1 5 3 3 6 6 4 4 5 6 7 7 7 6 7 7 6 6 7 6 5 5 5 5 5 5 4 3 2 2 2 2 1 1 2 2 1 1
5 6 8 5 2 1 2 5 3 3 4 3 3 6 7 8 7 6 7 7 7 6 6 6 6 6 5 5 5 6 6 5 4 2 2 2 1 1 1 1 1 1 1 1
4 5 8 2 3 5 6 3 2 4 4 5 7 8 8 8 7 7 8 8 7 6 7 6 6 5 5 5 6 6 6 5 4 2 1 1 1 1 1 2 1 1 1 1
8 8 4 4 6 4 2 3 4 4 6 5 7 8 7 7 7 7 7 7 7 6 7 7 6 5 5 6 6 6 5 5 4 3 2 1 1 2 1 1 1 1 1 2
6 9 7 6 6 6 5 6 6 6 6 5 7 7 7 7 7 6 6 6 6 6 7 7 7 6 6 7 6 5 5 5 4 3 2 2 1 1 1 2 2 2 2 2
7 7 7 6 7 7 7 6 7 6 5 5 6 6 6 6 6 6 6 6 5 5 6 7 7 7 7 6 6 5 5 4 4 3 2 2 1 1 1 1 2 3 3 3
8 7 5 6 5 4 5 6 6 6 6 5 4 6 5 6 5 5 6 5 5 6 6 7 7 7 7 6 5 4 4 4 3 3 2 2 1 2 3 1 2 2 2 2
7 4 5 6 5 4 5 6 5 5 6 6 5 5 5 5 5 5 5 6 6 6 6 6 6 7 7 6 5 4 4 4 3 2 2 1 1 1 1 3 4 3 2 2
6 4 5 5 6 5 5 5 4 4 4 4 4 4 4 5 5 5 6 6 6 6 6 6 6 7 6 5 4 4 4 4 4 2 2 1 1 1 1 1 2 3 3 3
6 6 7 6 5 4 3 3 3 4 4 4 3 4 4 5 6 6 6 5 5 5 5 5 6 7 6 5 4 4 3 3 3 2 2 2 1 1 1 1 1 2 3 3
5 5 5 5 6 5 3 3 4 5 4 4 4 4 4 5 5 5 5 4 4 5 5 5 6 6 5 4 4 3 3 4 4 3 2 2 2 1 1 1 1 1 2 2
3 4 4 5 6 5 5 5 5 6 5 5 5 4 4 4 4 5 5 4 4 5 5 5 6 5 4 4 3 2 2 3 4 3 2 2 1 1 1 1 1 1 1 2
6 6 6 6 6 6 6 5 5 5 5 5 4 3 3 4 5 5 5 4 4 5 5 5 5 5 4 3 2 2 2 2 2 2 2 2 1 1 1 1 1 1 2 2
4 5 5 5 5 4 5 5 5 5 5 4 3 4 4 4 5 5 4 3 4 5 6 5 6 4 4 4 3 1 1 2 2 2 2 2 2 1 1 1 1 1 2 2
4 4 4 4 4 4 4 4 4 4 4 3 3 3 4 4 4 4 3 3 4 4 5 5 4 3 4 3 2 1 1 1 1 1 1 1 2 2 1 1 1 1 1 1
4 4 4 4 4 4 4 4 3 4 4 3 3 4 4 4 3 3 2 4 5 4 4 5 3 3 3 2 2 1 1 1 1 1 1 1 1 1 1 1 1 1 1 2
4 4 4 4 4 4 4 3 3 3 3 3 3 3 3 4 3 3 3 4 4 5 4 3 2 4 4 3 1 1 1 1 1 1 1 1 1 2 2 2 2 2 1 1
5 4 4 4 4 4 4 3 3 3 3 3 3 3 4 3 3 3 4 3 3 5 3 2 4 5 4 2 2 1 1 1 1 1 1 1 2 2 2 2 2 2 1 1
4 4 4 3 2 2 4 4 3 3 3 3 3 3 3 3 3 3 3 5 5 5 3 4 5 5 4 2 2 2 2 2 2 2 2 2 2 2 2 2 2 2 2 2
3 3 3 2 2 3 3 4 3 3 3 3 3 3 3 2 3 3 3 3 4 4 3 4 5 5 3 2 2 2 2 2 2 2 2 2 2 2 2 2 2 2 2 2
3 3 3 3 3 3 2 2 2 2 2 3 3 2 2 2 2 2 2 2 3 3 2 2 3 3 2 2 2 2 2 3 3 2 2 2 2 2 2 3 3 3 3 3
2 2 2 2 2 2 2 2 2 3 3 3 3 2 2 2 2 2 2 2 2 2 2 2 2 2 2 2 2 2 2 2 2 2 2 2 2 2 3 3 3 3 3 3
Wind_Direction
258 270 269 256 257 230 209 216 226 251 262 282 296 301 303 308 316 323 329 330 331 329 329 331 334 333 332 328 326 319 315 294 280 268 257 227 212 207 206 208 210 207 197 193
284 273 271 274 260 239 236 236 244 264 277 278 295 304 306 308 310 314 318 320 321 321 324 324 324 322 323 320 319 320 310 292 289 280 263 234 215 205 201 205 197 190 197 192
279 308 317 277 245 220 225 222 212 241 260 306 314 310 301 299 297 298 307 313 314 314 313 314 315 315 313 310 314 319 314 310 304 294 276 256 230 191 183 190 187 187 188 183
291 357 265 256 214 205 228 250 229 251 284 298 297 299 288 283 290 302 308 310 311 313 312 313 313 313 311 315 316 313 316 318 311 304 296 274 225 201 190 176 187 190 185 188
202 272 278 288 248 177 215 276 232 246 282 304 318 319 302 299 310 297 300 302 304 306 305 309 311 313 318 319 316 314 310 309 309 303 291 258 232 225 217 189 196 206 209 193
177 226 252 262 259 196 137 285 264 242 277 306 346 327 303 322 322 312 310 308 308 313 316 316 318 320 315 313 316 314 309 303 298 285 270 254 242 231 224 206 200 193 201 211
210 234 264 263 257 127 177 265 301 254 267 266 247 258 291 311 317 317 318 319 320 320 317 315 321 327 320 319 313 309 310 307 304 288 262 248 241 223 223 215 187 184 203 223
185 214 256 212 140 189 230 289 284 270 265 259 269 286 300 305 312 320 324 325 327 326 321 322 327 326 322 321 317 320 319 314 312 306 288 251 205 216 204 181 184 210 207 230
202 222 256 189 213 237 248 266 269 268 272 268 278 288 295 301 308 315 317 320 323 321 321 327 330 329 321 319 324 325 325 322 322 319 306 281 215 197 190 176 181 215 214 228
254 263 260 252 251 260 251 253 265 264 268 263 269 281 290 298 305 312 315 316 320 324 325 327 332 331 320 319 325 325 322 323 326 330 327 319 288 219 192 184 195 215 226 234
256 274 293 272 246 254 263 264 272 275 266 260 263 277 282 290 297 303 309 314 318 317 316 318 326 328 326 328 332 328 321 324 328 328 327 330 326 269 218 217 226 226 226 221
238 236 226 262 264 254 263 272 268 272 284 280 258 267 279 284 290 296 303 310 315 314 314 316 323 325 328 332 332 328 322 325 325 327 324 321 331 355 1 348 325 290 283 261
244 256 245 268 280 265 263 272 271 261 263 278 278 267 274 283 290 296 301 305 304 304 307 313 320 323 327 332 332 330 321 322 325 327 328 329 325 329 352 10 10 350 329 325
253 265 271 265 268 272 265 273 273 272 271 272 278 285 285 289 296 297 296 297 300 305 311 317 321 320 325 330 332 335 331 328 331 331 331 330 327 329 352 19 7 3 356 347
251 240 250 270 281 286 282 285 292 291 291 291 288 288 290 290 291 293 298 306 312 316 319 322 320 318 327 329 332 336 335 337 337 340 340 337 346 2 22 25 12 3 12 9
279 270 264 266 271 279 281 274 274 282 285 284 285 284 281 279 285 296 305 312 315 313 313 316 312 314 326 328 331 336 335 333 340 346 349 352 0 8 14 16 14 11 356 349
265 276 271 275 273 274 266 260 261 270 275 274 276 282 287 291 298 303 307 307 295 295 301 302 303 313 323 327 329 329 333 336 339 346 351 351 4 2 359 4 358 356 345 338
239 250 253 255 263 271 277 272 268 269 269 272 278 282 279 277 281 289 297 305 309 310 308 303 307 316 322 325 324 329 338 344 353 347 344 350 355 355 358 359 351 346 348 344
264 265 268 266 263 263 270 272 274 273 274 274 270 267 264 265 271 283 294 306 310 309 310 311 319 327 323 321 332 338 343 345 347 345 346 339 345 359 8 6 353 349 347 349
284 283 283 284 280 271 272 275 276 277 275 268 267 272 278 280 285 287 285 278 275 279 293 308 315 316 312 318 338 350 338 330 332 341 346 346 341 340 343 342 338 340 346 342
292 291 289 288 290 286 278 275 271 274 279 267 259 265 274 283 286 282 285 292 297 302 310 321 330 319 315 329 342 354 330 318 319 325 326 324 324 324 328 330 330 330 332 332
286 286 287 288 287 293 294 285 273 273 279 277 273 273 280 287 289 285 269 270 291 311 320 317 317 317 330 345 359 346 336 324 310 309 304 301 302 305 309 311 308 309 309 308
279 277 281 283 282 290 301 295 281 273 274 276 278 276 272 271 269 274 285 287 295 308 319 312 317 328 341 359 353 338 332 325 312 294 280 277 280 282 286 290 293 294 289 290
281 282 282 286 286 297 303 300 292 286 282 282 283 277 272 277 277 261 267 292 305 312 313 314 323 329 340 355 341 327 317 309 302 297 291 289 286 284 283 285 288 291 289 287
282 280 282 286 284 283 284 293 300 299 296 293 292 288 276 256 260 280 288 292 303 314 314 317 324 329 338 334 324 313 305 295 287 286 286 291 287 285 285 284 282 283 283 280
283 281 278 272 274 280 284 287 292 295 299 303 306 304 301 296 286 290 296 298 303 318 325 319 318 321 320 312 305 302 301 306 311 311 296 287 285 285 287 291 291 285 280 279
291 294 299 302 299 294 291 284 284 289 289 291 296 304 306 309 313 313 315 321 326 326 323 324 325 323 318 315 313 309 307 304 300 297 292 287 284 281 280 281 284 285 283 281
Height
1521 1517 1517 1515 1513 1514 1515 1512 1509 1500 1497 1487 1485 1483 1479 1476 1473 1471 1468 1466 1465 1463 1460 1458 1457 1456 1456 1456 1455 1455 1455 1455 1455 1456 1456 1457 1459 1460 1462 1465 1466 1469 1471 1473
1521 1515 1515 1511 1507 1508 1508 1507 1505 1499 1493 1484 1483 1481 1478 1476 1473 1470 1468 1466 1464 1462 1460 1457 1456 1454 1454 1453 1453 1452 1452 1452 1452 1452 1452 1453 1454 1456 1458 1460 1461 1464 1466 1468
1520 1517 1511 1506 1501 1501 1501 1499 1499 1495 1488 1483 1481 1479 1477 1475 1472 1470 1467 1465 1462 1460 1458 1456 1455 1453 1452 1451 1450 1449 1449 1448 1449 1449 1449 1449 1450 1451 1453 1455 1457 1458 1461 1462
1523 1520 1513 1497 1496 1496 1496 1493 1492 1488 1485 1483 1481 1478 1475 1473 1471 1468 1466 1463 1461 1459 1457 1455 1453 1452 1450 1449 1448 1447 1446 1446 1446 1446 1446 1447 1448 1448 1449 1451 1452 1454 1455 1457
1525 1524 1511 1497 1494 1496 1496 1491 1487 1486 1483 1481 1479 1475 1472 1471 1469 1467 1465 1462 1460 1458 1455 1453 1451 1449 1448 1447 1446 1445 1444 1444 1444 1444 1444 1444 1445 1445 1447 1448 1449 1451 1452 1453
1525 1520 1508 1493 1493 1492 1494 1491 1483 1483 1481 1480 1478 1478 1473 1470 1467 1465 1463 1460 1458 1455 1453 1451 1449 1448 1446 1445 1444 1442 1442 1442 1442 1442 1442 1442 1443 1444 1445 1446 1447 1448 1449 1450
1523 1520 1505 1494 1492 1492 1495 1487 1482 1481 1480 1479 1478 1477 1472 1468 1466 1464 1461 1459 1456 1454 1452 1450 1448 1446 1445 1443 1442 1441 1440 1440 1440 1440 1440 1440 1440 1442 1443 1443 1444 1445 1446 1448
1520 1519 1504 1491 1491 1492 1487 1482 1480 1479 1478 1477 1475 1472 1469 1466 1464 1462 1459 1457 1454 1452 1450 1449 1447 1445 1443 1442 1441 1440 1439 1438 1438 1438 1438 1438 1438 1439 1440 1440 1441 1442 1443 1444
1505 1497 1488 1486 1484 1483 1482 1480 1478 1477 1475 1474 1472 1470 1467 1465 1462 1460 1458 1456 1453 1451 1449 1447 1446 1444 1442 1441 1440 1438 1437 1437 1436 1436 1436 1436 1436 1437 1438 1438 1439 1440 1441 1441
1499 1488 1484 1483 1481 1480 1479 1478 1476 1475 1473 1471 1469 1467 1465 1463 1460 1458 1456 1454 1452 1450 1447 1445 1444 1443 1441 1440 1439 1437 1436 1435 1435 1434 1434 1434 1434 1435 1436 1436 1437 1437 1438 1438
1494 1485 1481 1478 1477 1476 1475 1474 1473 1471 1470 1468 1466 1464 1463 1460 1459 1457 1455 1453 1451 1448 1446 1444 1443 1441 1440 1439 1438 1436 1435 1434 1433 1433 1432 1432 1432 1433 1433 1434 1435 1435 1435 1436
1483 1478 1478 1475 1474 1473 1472 1471 1469 1467 1465 1465 1463 1462 1460 1458 1457 1455 1453 1451 1449 1446 1444 1443 1441 1440 1439 1437 1436 1435 1434 1433 1432 1432 1432 1432 1431 1432 1432 1433 1433 1433 1434 1434
1475 1473 1473 1471 1471 1470 1469 1467 1466 1464 1462 1461 1460 1459 1457 1456 1454 1453 1451 1449 1447 1445 1443 1441 1439 1438 1437 1436 1435 1433 1432 1432 1431 1431 1430 1430 1430 1430 1430 1431 1431 1431 1431 1431
1472 1471 1469 1468 1467 1466 1465 1464 1462 1461 1459 1458 1457 1456 1454 1453 1451 1450 1448 1447 1445 1443 1441 1439 1438 1436 1436 1434 1433 1432 1431 1430 1430 1429 1429 1429 1429 1429 1429 1428 1428 1428 1429 1430
1468 1468 1466 1465 1464 1463 1461 1460 1459 1457 1456 1455 1454 1453 1451 1450 1449 1447 1446 1445 1443 1441 1439 1438 1436 1435 1434 1433 1431 1430 1429 1429 1428 1428 1427 1427 1427 1427 1427 1427 1427 1427 1427 1428
1464 1463 1462 1461 1460 1459 1458 1457 1455 1454 1453 1452 1451 1450 1449 1448 1446 1445 1444 1442 1440 1439 1437 1436 1435 1434 1433 1431 1430 1429 1428 1428 1427 1426 1426 1426 1426 1425 1425 1426 1426 1426 1426 1426
1461 1459 1458 1457 1456 1455 1455 1454 1452 1451 1450 1449 1448 1447 1446 1445 1443 1442 1441 1440 1439 1437 1436 1435 1433 1433 1431 1430 1428 1427 1427 1426 1426 1425 1425 1425 1424 1424 1425 1425 1425 1425 1425 1426
1458 1457 1456 1455 1453 1452 1451 1450 1449 1448 1447 1446 1445 1444 1443 1441 1440 1439 1439 1438 1437 1435 1434 1433 1432 1431 1430 1428 1427 1426 1426 1425 1424 1424 1424 1424 1424 1424 1424 1424 1424 1424 1424 1424
1455 1454 1453 1452 1451 1450 1448 1447 1446 1445 1444 1443 1442 1441 1440 1439 1438 1437 1436 1435 1434 1432 1432 1431 1430 1429 1428 1427 1426 1425 1425 1424 1424 1424 1423 1423 1423 1423 1423 1423 1423 1423 1422 1422
1452 1451 1450 1449 1449 1447 1446 1445 1444 1442 1441 1440 1439 1438 1437 1436 1435 1434 1434 1433 1432 1431 1430 1429 1428 1427 1427 1426 1425 1425 1424 1423 1423 1423 1423 1422 1422 1422 1422 1422 1422 1421 1421 1421
1450 1449 1448 1447 1446 1445 1444 1443 1441 1440 1439 1438 1437 1435 1434 1434 1433 1432 1431 1430 1430 1429 1428 1427 1426 1425 1425 1424 1424 1423 1423 1422 1422 1422 1421 1421 1421 1421 1421 1420 1420 1420 1420 1420
1448 1447 1446 1445 1444 1443 1442 1440 1439 1438 1436 1435 1434 1433 1432 1431 1430 1430 1429 1428 1428 1427 1426 1425 1424 1424 1423 1423 1422 1422 1421 1421 1420 1420 1420 1420 1419 1419 1419 1419 1419 1418 1418 1418
1446 1445 1444 1443 1442 1440 1439 1438 1437 1436 1434 1433 1432 1431 1430 1429 1428 1428 1427 1427 1426 1425 1424 1423 1423 1422 1422 1421 1420 1420 1419 1419 1419 1418 1418 1418 1418 1417 1417 1417 1417 1417 1416 1416
1444 1443 1442 1441 1439 1438 1437 1436 1435 1434 1432 1431 1430 1429 1428 1427 1427 1426 1425 1425 1424 1423 1422 1421 1421 1420 1420 1419 1418 1418 1417 1417 1417 1416 1416 1416 1415 1415 1415 1415 1414 1414 1414 1414
1441 1440 1439 1438 1437 1436 1435 1434 1433 1432 1430 1429 1428 1427 1426 1426 1425 1424 1423 1422 1422 1421 1420 1419 1419 1418 1417 1416 1416 1415 1415 1415 1414 1414 1414 1413 1413 1413 1412 1412 1412 1412 1411 1411
1439 1438 1437 1436 1435 1434 1433 1432 1431 1429 1428 1427 1426 1426 1425 1424 1423 1422 1421 1420 1420 1419 1418 1417 1416 1416 1415 1414 1414 1413 1413 1412 1412 1411 1411 1411 1410 1410 1410 1409 1409 1409 1408 1408
1437 1436 1435 1434 1433 1432 1431 1430 1429 1428 1427 1425 1424 1424 1423 1422 1421 1420 1419 1418 1418 1417 1416 1415 1414 1414 1413 1412 1411 1411 1410 1410 1409 1409 1408 1408 1408 1407 1407 1406 1406 1406 1405 1405